DW0326 Weather Reports


time (UTC)temp
C
wind
direction
speed
KPH
gust
KPH
rain 1hr
cm
rain 24hr
cm
rain mn
cm
humidity
%
barometer
mb
20260506161026 26 126 0.0 8.0 0.00 0.00 0.00 92 1006.3
20260506160125 26 181 1.6 11.3 0.00 0.00 0.00 91 1006.3
20260506155226 26 191 1.6 11.3 0.00 0.00 0.00 91 1006.0
20260506154325 26 200 1.6 8.0 0.00 0.00 0.00 91 1006.0
20260506153425 26 202 3.2 12.9 0.00 0.00 0.00 91 1005.9
20260506152526 26 213 1.6 11.3 0.00 0.00 0.00 91 1005.7
20260506150725 26 187 1.6 11.3 0.00 0.00 0.00 91 1005.5
20260506145825 26 179 1.6 12.9 0.00 0.00 0.00 91 1005.5
20260506144926 26 182 3.2 14.5 0.00 0.00 0.00 91 1005.2
20260506144025 26 183 1.6 11.3 0.00 0.00 0.00 92 1005.0
20260506143125 26 196 1.6 14.5 0.00 0.00 0.00 93 1005.0
20260506142225 26 185 0.0 9.7 0.00 0.00 0.00 93 1005.2
20260506141325 26 182 3.2 17.7 0.00 0.00 0.00 94 1005.2
20260506140425 25 169 3.2 16.1 0.00 0.00 0.00 94 1005.4
20260506135525 25 167 3.2 12.9 0.00 0.00 0.00 95 1005.4
20260506134625 25 167 1.6 14.5 0.00 0.00 0.00 95 1005.4
20260506133726 25 166 1.6 9.7 0.00 0.00 0.00 96 1005.5
20260506132825 25 185 1.6 17.7 0.00 0.00 0.00 96 1005.5
20260506131925 25 0 0.0 0.0 0.00 0.00 0.00 96 1005.5
20260506131025 25 0 0.0 0.0 0.00 0.00 0.00 97 1005.5
20260506130125 25 0 0.0 0.0 0.00 0.00 0.00 97 1005.5
20260506125226 25 0 0.0 0.0 0.00 0.00 0.00 97 1005.5
20260506124325 25 0 0.0 0.0 0.00 0.00 0.00 97 1005.5
20260506123425 24 0 0.0 0.0 0.00 0.00 0.00 97 1005.4
20260506122525 24 0 0.0 0.0 0.00 0.00 0.00 97 1005.1
20260506120725 24 0 0.0 0.0 0.00 0.00 0.00 97 1004.9
20260506115825 24 189 1.6 9.7 0.00 0.00 0.00 97 1004.9
20260506114025 24 168 0.0 11.3 0.00 0.00 0.00 97 1004.4
20260506112225 24 177 3.2 11.3 0.00 0.00 0.00 97 1004.3
20260506111325 24 172 3.2 17.7 0.00 0.00 0.00 97 1004.3
20260506110426 24 175 3.2 11.3 0.00 0.00 0.00 97 1004.1
20260506105526 24 175 4.8 16.1 0.00 0.00 0.00 97 1004.2
20260506104626 24 178 1.6 16.1 0.00 0.00 0.00 97 1004.2
20260506103725 24 182 3.2 16.1 0.00 0.00 0.00 97 1004.2
20260506102825 24 178 3.2 17.7 0.00 0.00 0.00 97 1004.2
20260506101926 24 178 4.8 19.3 0.00 0.00 0.00 97 1004.0
20260506101025 24 183 3.2 14.5 0.00 0.00 0.00 97 1004.1
20260506100125 24 185 4.8 16.1 0.00 0.00 0.00 96 1004.1
20260506094326 24 177 3.2 16.1 0.00 0.00 0.00 96 1003.9
20260506093426 24 168 1.6 9.7 0.00 0.00 0.00 96 1003.9
20260506092525 24 168 3.2 11.3 0.00 0.00 0.00 95 1004.0
20260506091625 24 157 1.6 9.7 0.00 0.00 0.00 95 1004.0
20260506090725 24 176 1.6 11.3 0.00 0.00 0.00 95 1004.2
20260506085825 25 177 4.8 17.7 0.00 0.00 0.00 95 1004.2
20260506084925 25 189 4.8 16.1 0.00 0.00 0.00 94 1004.3
20260506084026 25 186 6.4 19.3 0.00 0.00 0.00 94 1004.4
20260506083125 25 187 6.4 19.3 0.00 0.00 0.00 94 1004.4
20260506082225 25 182 4.8 14.5 0.00 0.00 0.00 94 1004.4
20260506081326 25 177 6.4 19.3 0.00 0.00 0.00 94 1004.4
20260506080425 25 186 6.4 17.7 0.00 0.00 0.00 94 1004.4
20260506072825 25 177 3.2 16.1 0.00 0.00 0.00 94 1004.7
20260506071925 25 187 3.2 16.1 0.00 0.00 0.00 93 1004.9
20260506070125 25 181 3.2 11.3 0.00 0.00 0.00 93 1005.0
20260506061626 25 176 4.8 19.3 0.00 0.00 0.00 93 1005.2
20260506060725 25 179 3.2 16.1 0.00 0.00 0.00 93 1005.0
20260506050425 25 186 1.6 19.3 0.00 0.00 0.00 93 1005.2
20260506044625 25 186 6.4 24.1 0.00 0.00 0.00 93 1005.1
20260506043725 25 190 4.8 17.7 0.00 0.00 0.00 93 1004.9
20260506042825 25 184 3.2 19.3 0.00 0.00 0.00 93 1004.9
20260506041925 25 178 3.2 11.3 0.00 0.00 0.00 93 1005.1
20260506041025 25 175 3.2 17.7 0.00 0.00 0.00 93 1005.0
20260506040125 25 177 4.8 14.5 0.00 0.00 0.00 93 1004.9
20260506035225 25 177 6.4 20.9 0.00 0.00 0.00 92 1004.8
20260506033425 25 186 4.8 24.1 0.00 0.00 0.00 92 1004.5
20260506032525 25 176 4.8 27.4 0.00 0.00 0.00 92 1004.6
20260506031625 25 181 6.4 20.9 0.00 0.00 0.00 91 1004.6
20260506030726 25 179 8.0 20.9 0.00 0.00 0.00 91 1004.4
20260506025825 25 179 6.4 19.3 0.00 0.00 0.00 91 1004.4
20260506024925 25 176 8.0 20.9 0.00 0.00 0.00 91 1004.3
20260506024025 25 191 6.4 25.7 0.00 0.00 0.00 91 1003.9
20260506023125 26 179 8.0 19.3 0.00 0.00 0.00 90 1003.9
20260506022225 26 181 4.8 27.4 0.00 0.00 0.00 90 1003.9
20260506021325 26 182 4.8 17.7 0.00 0.00 0.00 88 1003.9
20260506020425 26 186 6.4 20.9 0.00 0.00 0.00 88 1003.7
20260506015525 26 189 6.4 24.1 0.00 0.00 0.00 88 1003.4
20260506014625 26 181 8.0 22.5 0.00 0.00 0.00 88 1003.4
20260506013725 26 181 9.7 27.4 0.00 0.00 0.00 88 1003.2
20260506012825 26 184 8.0 24.1 0.00 0.00 0.00 87 1003.2
20260506011926 26 171 4.8 19.3 0.00 0.00 0.00 87 1003.0
20260506011025 26 177 6.4 20.9 0.00 0.00 0.00 86 1002.9
20260506010125 26 177 3.2 14.5 0.00 0.00 0.00 86 1002.9
20260506004326 26 184 8.0 24.1 0.00 0.00 0.00 84 1002.8
20260506003425 26 190 6.4 20.9 0.00 0.00 0.00 84 1002.8
20260506002525 27 185 8.0 24.1 0.00 0.00 0.00 83 1002.7
20260506001625 27 188 9.7 25.7 0.00 0.00 0.00 83 1002.7
20260505235825 27 188 6.4 25.7 0.00 0.00 0.00 83 1002.5
20260505234925 27 186 11.3 29.0 0.00 0.00 0.00 82 1002.6
20260505234026 27 188 9.7 25.7 0.00 0.00 0.00 82 1002.5
20260505233125 27 186 11.3 27.4 0.00 0.00 0.00 82 1002.5
20260505232225 27 188 8.0 25.7 0.00 0.00 0.00 82 1002.7
20260505231325 27 184 9.7 20.9 0.00 0.00 0.00 83 1002.7
20260505230425 27 197 6.4 22.5 0.00 0.00 0.00 83 1002.6
20260505224626 27 190 11.3 27.4 0.00 0.00 0.00 82 1002.7
20260505223725 27 185 9.7 24.1 0.00 0.00 0.00 82 1002.7
20260505222825 27 184 8.0 22.5 0.00 0.00 0.00 83 1002.7
20260505221925 27 198 8.0 29.0 0.00 0.00 0.00 82 1002.8
20260505221025 28 188 9.7 29.0 0.00 0.00 0.00 82 1002.9
20260505215225 28 184 9.7 24.1 0.00 0.00 0.00 82 1003.0
20260505213425 28 195 9.7 24.1 0.00 0.00 0.00 80 1003.2
20260505212525 28 196 11.3 25.7 0.00 0.00 0.00 80 1003.3
20260505211625 28 196 8.0 24.1 0.00 0.00 0.00 81 1003.3
20260505205825 28 203 9.7 24.1 0.00 0.00 0.00 81 1003.4
20260505204926 28 211 11.3 27.4 0.00 0.00 0.00 81 1003.5
20260505204025 28 209 9.7 25.7 0.00 0.00 0.00 81 1003.9
20260505203125 28 204 9.7 27.4 0.00 0.00 0.00 82 1003.9
20260505202225 28 186 6.4 25.7 0.00 0.00 0.00 82 1004.0
20260505201325 28 187 4.8 20.9 0.00 0.00 0.00 81 1004.0
20260505200425 28 216 9.7 24.1 0.00 0.00 0.00 81 1004.2
20260505195525 28 212 8.0 25.7 0.00 0.00 0.00 81 1004.4
20260505194625 28 207 9.7 27.4 0.00 0.00 0.00 81 1004.4
20260505193726 28 197 11.3 27.4 0.00 0.00 0.00 81 1004.4
20260505191925 27 200 4.8 24.1 0.00 0.00 0.00 84 1004.6
20260505191025 27 194 9.7 24.1 0.00 0.00 0.00 84 1004.8
20260505190125 27 193 6.4 25.7 0.00 0.00 0.00 84 1004.8
20260505185225 27 215 4.8 19.3 0.00 0.00 0.00 84 1004.9
20260505184325 27 209 3.2 17.7 0.00 0.00 0.00 84 1004.9
20260505183425 27 221 4.8 17.7 0.00 0.00 0.00 85 1004.9
20260505182525 27 204 8.0 19.3 0.00 0.00 0.00 85 1004.9
20260505181625 27 203 9.7 27.4 0.00 0.00 0.00 84 1004.9
20260505180725 27 197 8.0 22.5 0.00 0.00 0.00 85 1005.1
20260505175825 26 200 6.4 24.1 0.00 0.00 0.00 85 1005.1
20260505174924 26 197 9.7 22.5 0.00 0.00 0.00 85 1005.4
20260505174025 26 195 11.3 27.4 0.00 0.00 0.00 85 1005.4
20260505173124 26 224 4.8 24.1 0.00 0.00 0.00 85 1005.4
20260505172225 26 190 4.8 22.5 0.00 0.00 0.00 86 1005.4
20260505170425 26 199 8.0 19.3 0.00 0.00 0.00 86 1005.5
20260505164624 26 196 6.4 17.7 0.00 0.00 0.00 86 1005.5
20260505163724 26 194 4.8 19.3 0.00 0.00 0.00 87 1005.5
20260505162825 26 216 6.4 19.3 0.00 0.00 0.00 87 1005.5
20260505161925 26 211 8.0 24.1 0.00 0.00 0.00 87 1005.4